This is the latest recevied weather packets stored in our database for station/object KGRR-WX. If no packets are shown the sender has not sent any weather packets the latest 10 day(s).
| Time | Temp. | Humidity | Pressure | Rain* | Wind** | Luminosity | Snow |
|---|---|---|---|---|---|---|---|
| 1778011222 | 12.22° C | 35% | 980.7 hPa | 0 mm | - | - | - |
| 1778010305 | 12.22° C | 31% | 980.4 hPa | 0 mm | - | - | - |
| 1778009414 | 12.78° C | 31% | 980.4 hPa | 0 mm | - | - | - |
| 1778008507 | 12.22° C | 31% | 980.4 hPa | 0 mm | - | - | - |
| 1778007617 | 12.78° C | 31% | 980.4 hPa | 0 mm | - | - | - |
| 1778006708 | 12.22° C | 33% | 981.1 hPa | 0 mm | - | - | - |
| 1778005823 | 12.22° C | 34% | 980.4 hPa | 0 mm | - | - | - |
| 1778004908 | 12.78° C | 34% | 980.4 hPa | 0 mm | - | - | - |
| 1778004023 | 12.78° C | 34% | 980.4 hPa | 0 mm | - | - | - |
| 1778003108 | 12.78° C | 33% | 979.7 hPa | 0 mm | - | - | - |
| 1778002214 | 12.78° C | 33% | 978.9 hPa | 0 mm | - | - | - |
| 1778001308 | 12.78° C | 33% | 978.9 hPa | 0 mm | - | - | - |
| 1778000418 | 12.78° C | 33% | 978.9 hPa | 0 mm | - | - | - |
| 1777999508 | 12.78° C | 33% | 979.6 hPa | 0 mm | - | - | - |
| 1777998622 | 12.78° C | 30% | 977.8 hPa | 0 mm | - | - | - |
| 1777997708 | 12.22° C | 30% | 977.8 hPa | 0 mm | - | - | - |
| 1777996826 | 12.22° C | 30% | 977.8 hPa | 0 mm | - | - | - |
| 1777995905 | 11.67° C | 36% | 979.8 hPa | 0 mm | - | - | - |
| 1777995023 | 12.22° C | 33% | 978.7 hPa | 0 mm | - | - | - |
| 1777994108 | 11.67° C | 33% | 978.7 hPa | 0 mm | - | - | - |
| 1777993226 | 11.67° C | 33% | 978.7 hPa | 0 mm | - | - | - |
| 1777992308 | 11.11° C | 52% | 978.7 hPa | 0 mm | - | - | - |
| 1777991415 | 10.56° C | 38% | 978.5 hPa | 0 mm | - | - | - |
| 1777990507 | 11.67° C | 38% | 978.5 hPa | 0 mm | - | - | - |
| 1777989627 | 11.11° C | 38% | 978.5 hPa | 0 mm | - | - | - |
* Rain latest hour (hover to see other rain measurements)
** Current wind speed in m/s (hover to see current wind gust speed)